Location: Burbank
(38.7788°N, 114.0429°W)
Time: 20:43:56
(UTC+00:00)

Vanguard 2 - Pass Details

Date: 15 May 2026
Orbit: 553 x 2894 km, 32.9° (Epoch: 6 June)

Event Time Altitude Azimuth Distance (km) Brightness Sun altitude
Rises 12:23:52 0° 268° (W) 6,731 11.7 -0.8°
Reaches altitude 10° 12:28:27 10° 266° (W) 5,689 11.4 0.0°
Maximum altitude 12:45:24 68° 189° (S) 2,542 10.1 3.0°
Drops below altitude 10° 12:57:04 10° 110° (ESE) 4,080 12.1 5.1°
Sets 12:59:47 0° 107° (ESE) 4,800 12.6 5.6°
